Weather History for KMFE - December, 2012

Change the Weather History Date:

Thursday, December 20, 2012

  Actual Average Record
Temperature  
Mean Temperature 60 °F 61 °F  
Max Temperature 72 °F 71 °F 89 °F (2007)
Min Temperature 48 °F 51 °F 27 °F (1933)
Degree Days  
Heating Degree Days 5 6  
Month to date heating degree days 29 103  
Since 1 July heating degree days 44 163  
Cooling Degree Days 0 2  
Month to date cooling degree days 148 60  
Year to date cooling degree days 5237 4429  
Growing Degree Days 12 (Base 50)    
Moisture  
Dew Point 23 °F    
Average Humidity 52    
Maximum Humidity 93    
Minimum Humidity 11    
Precipitation  
Precipitation 0.00 in 0.04 in 0.36 in (1983)
Month to date precipitation T 0.74  
Year to date precipitation 17.47 21.75  
Sea Level Pressure  
Sea Level Pressure 30.26 in    
Wind  
Wind Speed 17 mph (NNW)    
Max Wind Speed 32 mph    
Max Gust Speed 43 mph    
Visibility 9 miles    
Events      
T = Trace of Precipitation, MM = Missing Value Source: NWS Daily Summary

Daily Weather History Graph

Daily Weather History Graph

Search for Another Location

Airport or City:

Trip Planner

Search our weather history database for the weather conditions in past years. The results will help you decide how hot, cold, wet, or windy it might be!

Date:

Astronomy

Dec. 20, 2012 Rise Set
Actual Time 7:15 AM CST 5:45 PM CST
Civil Twilight 6:50 AM CST 6:11 PM CST
Nautical Twilight 6:21 AM CST 6:40 PM CST
Astronomical Twilight 5:53 AM CST 7:08 PM CST
Moon 12:37 PM CST (12/20) 12:34 AM CST (12/20)
Length of Visible Light 11h 20m
Length of Day
10h 30m
First Quarter, 55% of the Moon is Illuminated
Dec 20
First Quarter
Dec 28
Full
Jan 4
Last Quarter
Jan 11
New
Jan 18
First Quarter

Hourly Weather History & Observations

Time (CST) Temp. Dew Point Humidity Pressure Visibility Wind Dir Wind Speed Gust Speed Precip Events Conditions
12:53 AM 72.0 °F 68.0 °F 87% 29.81 in 6.0 mi South 5.8 mph - N/A   Clear
1:53 AM 70.0 °F 66.9 °F 90% 29.82 in 5.0 mi South 4.6 mph - N/A   Clear
2:53 AM 68.0 °F 66.0 °F 93% 29.85 in 3.0 mi Calm Calm - N/A   Clear
3:23 AM 69.8 °F 68.0 °F 94% 29.92 in 5.0 mi NW 10.4 mph 31.1 mph N/A   Mostly Cloudy
3:53 AM 72.0 °F 54.0 °F 53% 29.95 in 10.0 mi North 26.5 mph 36.8 mph N/A   Mostly Cloudy
4:37 AM 71.6 °F 42.8 °F 35% 29.99 in 9.0 mi North 21.9 mph 31.1 mph N/A   Overcast
4:53 AM 70.0 °F 39.0 °F 32% 30.01 in 9.0 mi NNW 24.2 mph 32.2 mph N/A   Overcast
5:53 AM 68.0 °F 24.1 °F 19% 30.09 in 7.0 mi North 27.6 mph 39.1 mph N/A   Overcast
6:53 AM 64.9 °F 14.0 °F 14% 30.16 in 9.0 mi NNW 31.1 mph 40.3 mph N/A   Overcast
7:28 AM 64.4 °F 15.8 °F 15% 30.22 in 10.0 mi NNW 19.6 mph 28.8 mph N/A   Overcast
7:50 AM 62.6 °F 14.0 °F 15% 30.25 in 9.0 mi NNW 23.0 mph 35.7 mph N/A   Overcast
7:53 AM 63.0 °F 14.0 °F 15% 30.25 in 9.0 mi NNW 23.0 mph 35.7 mph N/A   Overcast
8:53 AM 63.0 °F 15.1 °F 16% 30.31 in 9.0 mi NNW 24.2 mph 32.2 mph N/A   Overcast
9:53 AM 63.0 °F 15.1 °F 16% 30.37 in 9.0 mi NNW 24.2 mph 32.2 mph N/A   Overcast
10:18 AM 64.4 °F 15.8 °F 15% 30.37 in 10.0 mi NNW 24.2 mph 36.8 mph N/A   Overcast
10:41 AM 64.4 °F 14.0 °F 14% 30.38 in 10.0 mi NNW 24.2 mph 34.5 mph N/A   Overcast
10:53 AM 64.0 °F 12.0 °F 13% 30.39 in 10.0 mi NNW 24.2 mph 39.1 mph N/A   Overcast
11:46 AM 62.6 °F 12.2 °F 14% 30.41 in 10.0 mi North 21.9 mph 33.4 mph N/A   Partly Cloudy
11:53 AM 64.0 °F 12.9 °F 14% 30.40 in 10.0 mi NW 26.5 mph 34.5 mph N/A   Clear
12:53 PM 64.0 °F 10.0 °F 12% 30.38 in 10.0 mi NNW 27.6 mph 36.8 mph N/A   Partly Cloudy
1:53 PM 64.9 °F 8.1 °F 11% 30.36 in 10.0 mi North 20.7 mph 33.4 mph N/A   Clear
2:53 PM 64.0 °F 10.0 °F 12% 30.36 in 10.0 mi NNW 24.2 mph 32.2 mph N/A   Clear
3:53 PM 64.0 °F 9.0 °F 12% 30.36 in 10.0 mi NNW 19.6 mph 29.9 mph N/A   Clear
4:53 PM 62.1 °F 9.0 °F 12% 30.38 in 10.0 mi NW 21.9 mph 31.1 mph N/A   Clear
5:53 PM 59.0 °F 8.1 °F 13% 30.40 in 10.0 mi NNW 12.7 mph - N/A   Clear
6:53 PM 55.9 °F 9.0 °F 15% 30.42 in 10.0 mi NNW 8.1 mph - N/A   Clear
7:53 PM 55.0 °F 10.0 °F 17% 30.45 in 10.0 mi NNW 8.1 mph - N/A   Clear
8:53 PM 53.1 °F 12.0 °F 20% 30.46 in 10.0 mi NW 6.9 mph - N/A   Clear
9:53 PM 52.0 °F 12.0 °F 20% 30.48 in 10.0 mi NW 8.1 mph - N/A   Clear
10:53 PM 51.1 °F 14.0 °F 23% 30.49 in 10.0 mi NW 6.9 mph - N/A   Clear
11:53 PM 48.9 °F 15.1 °F 26% 30.50 in 10.0 mi NW 6.9 mph - N/A   Clear